Regional Weather Roundup
Issued by NWS Grand Forks, ND

Home | Current Version | Previous Version | Text Only | Print | Product List | Glossary Off
Versions: 1 2 3 4 5 6 7 8 9 10 11 12 13 14 15 16 17 18 19 20 21 22 23 24 25 26 27 28 29 30 31 32 33 34 35 36 37 38 39 40 41 42 43 44 45 46 47 48 49 50

000
ASUS43 KFGF 042131
RWRFGF
PRAIRIE TO PINES  WEATHER ROUNDUP
NATIONAL WEATHER SERVICE EASTERN NORTH DAKOTA/GRAND FORKS ND
300 PM CST WED MAR 04 2015

 **SATELLITE DATA USED TO AUGMENT SKY COVER AT AUTOMATED STATIONS**
 *****  WEATHER ACROSS EASTERN NORTH DAKOTA  *****

CITY           SKY/WX    TMP DP  RH WIND       PRES   REMARKS
GRAND FORKS    PTSUNNY    3  -9  57 NW15G23   30.33R WCI -16
GRAND FRKS AFB MOSUNNY    3 -11  51 NW16G23   30.33R WCI -16
GRAND FRKS NWS   N/A      5 N/A N/A NW14        N/A  WCI -12
DEVILS LAKE    SUNNY      0 -15  50 NW15      30.30S WCI -20
FARGO          CLOUDY     6  -8  52 NW15G29   30.33S WCI -12
WAHPETON ARPT  MOCLDY     5  -9  51 NW16G23   30.34R WCI -14
$$

 ***** WEATHER ACROSS CENTRAL AND WESTERN NORTH DAKOTA  *****

CITY           SKY/WX    TMP DP  RH WIND       PRES   REMARKS
BISMARCK       SUNNY      5 -12  45 NW17      30.34F WCI -14
MINOT          SUNNY      0 -12  57 NW13      30.31F WCI -18
JAMESTOWN      CLOUDY     1 -10  60 NW21      30.30R WCI -21
MINOT AFB      SUNNY     -2 -12  63 NW15      30.31F WCI -22
GARRISON         N/A     -1 -11  62 NW14      30.31F WCI -20
WILLISTON      SUNNY      2 -13  49 VRB7      30.32F WCI -11
DICKINSON      SUNNY      9 -11  40 W8        30.21F WCI  -3
HETTINGER      SUNNY     11 -10  38 W10       30.23S WCI  -3
$$

 *****  OTHER AIRPORT OBSERVATIONS IN OUR AREA  *****

CITY           SKY/WX    TMP DP  RH WIND       PRES   REMARKS
WALHALLA         N/A      0  -9  65 NW14      30.34R WCI -19
GRAFTON AIRPOR NOT AVBL
VALLEY CITY AR FLURRIES   1  -8  66 NW18      30.30R WCI -19
CANDO          FAIR       0  -9  65 W14       30.31R WCI -19
CAVALIER APRT  FAIR       1  -8  66 NW14      30.34R WCI -17
GWINNER        MOCLDY     5  -8  56 NW16      30.34R WCI -14
SHEYENNE NWR     N/A      4 -13  45 NW12      29.95  WCI -12
ROLLA          FAIR      -2  -9  71 N14       30.25F WCI -21
 ***** THE ABOVE OBSERVATIONS ARE NON NWS ARE NOT QUALITY
       CONTROLLED AND MAY MIS-REPORT RAIN FOR SNOW...
$$

  *****  WEATHER ACROSS NORTHERN MINNESOTA  *****

CITY           SKY/WX    TMP DP  RH WIND       PRES   REMARKS
FLAG ISLAND    SUNNY      1 -11  55 NW16      30.19R WCI -18
WARROAD        SUNNY      1  -9  60 NW12      30.22R WCI -15
ROSEAU         SUNNY      0  -9  65 W14G20    30.24S WCI -19
HALLOCK        PTSUNNY    0  -9  65 NW18G25   30.32R WCI -22
THF RVR FALLS  CLOUDY    -2  -8  78 NW15      30.28R WCI -22
BAUDETTE       CLOUDY    -1 -12  59 W13       30.19R WCI -19
WASKISH        MOSUNNY    1  -9  60 W13G18    30.21R WCI -16
CROOKSTON      SUNNY      1  -8  66 N18G24    30.33R WCI -19
$$
  *****  WEATHER ACROSS CENTRAL AND WEST MINNESOTA  *****

CITY           SKY/WX    TMP DP  RH WIND       PRES   REMARKS
FOSSTON        PTSUNNY    1  -9  60 NW16      30.27R HAZE    WCI -18
BEMIDJI        CLOUDY    -3 -11  67 NW17      30.21R HAZE    WCI -24
PARK RAPIDS    CLOUDY     1 -10  60 NW15G24   30.20R WCI -18
ELBOW LAKE     CLOUDY     1  -8  68 NW17G23   30.29R HAZE    WCI -20
WADENA         SUNNY      0 -11  60 NW16G22   30.24R WCI -21
DETROIT LAKES  MOSUNNY    3  -6  66 NW20G25   30.26R WCI -18
MOORHEAD       MOSUNNY    7  -8  51 NW20      30.33S WCI -13
FERGUS FALLS   MOSUNNY    1  -9  60 NW15      30.34R HAZE    WCI -18
MORRIS MN        N/A      3  -8  60 NW21      30.30R HAZE    WCI -18
STAPLES        MOSUNNY    0 -11  60 W14G20    30.24R WCI -19
$$
  *****  WEATHER ELSEWHERE ACROSS MINNESOTA  *****

CITY           SKY/WX    TMP DP  RH WIND       PRES   REMARKS
DULUTH         FAIR       3 -15  43 W14G24    30.10S WCI -15
INTRNTL FALLS  SUNNY      0 -15  49 W15       30.15S WCI -19
ELY            SUNNY      1 -17  42 NW13G20   30.09R WCI -16
CLOQUET        SUNNY      1 -18  39 NW15G24   30.14R WCI -18
WHEATON        PTSUNNY    1  -8  66 NW17      30.36R HAZE    WCI -19
BRAINERD       PTSUNNY    3 -14  45 W15G23    30.21R WCI -16
HIBBING        PTSUNNY    2 -13  49 NW15      30.13R WCI -17
ALEXANDRIA     PTSUNNY    0 -12  57 NW20      30.25R WCI -22
SAINT CLOUD    MOSUNNY    5 -10  50 NW22      30.23S WCI -16
MINNEAPOLIS    MOSUNNY   11  -6  46 NW20      30.24R WCI  -7
$$

  *****  WEATHER ACROSS SOUTH DAKOTA  *****

CITY           SKY/WX    TMP DP  RH WIND       PRES   REMARKS
SIOUX FALLS    PTSUNNY    9  -3  58 NW21G28   30.31R WCI -11
BROOKINGS      NOT AVBL
WATERTOWN      MOSUNNY    2  -9  60 NW21      30.27S WCI -20
HURON          PTSUNNY    8  -5  55 N18G26    30.36S WCI -11
SISSETON       NOT AVBL
ABERDEEN       PTSUNNY    4 -10  52 NW22      30.37R WCI -18
MITCHELL       PTSUNNY   12   0  58 NW24G30   30.37R WCI  -8
PIERRE         MOSUNNY   13  -4  46 NW17G25   30.31F WCI  -4
MOBRIDGE       MOSUNNY   12  -9  38 NW17G25   30.28F WCI  -5
RAPID CITY     SUNNY     17   3  54 N16       30.19F WCI   2
$$

  *****  SOME WEATHER IN NEARBY STATES *****

CITY           SKY/WX    TMP DP  RH WIND       PRES   REMARKS
GLASGOW MT     SUNNY     13  -6  42 SW5       30.23F WCI   5
GREAT FALLS MT SUNNY     35  10  35 SW16G23   30.06F
CHEYENNE WY    CLOUDY    18  -3  39 NW14G20   30.03F WCI   4
SCOTTSBLUFF NE SUNNY     25   3  38 NW13      30.16F WCI  14
OMAHA NE       MOSUNNY   29  -4  24 NW26G32   30.28F WCI  14
DES MOINES IA  PTSUNNY   29   5  36 NW18      30.23F WCI  16
DAVENPORT IA   SUNNY     16   3  56 NW14      30.27R WCI   2
CHICAGO IL     MOSUNNY   21   0  39 NW20      30.17R WCI   6
EAU CLAIRE WI  SUNNY     11  -9  40 NW18G25   30.18R WCI  -7
LA CROSSE WI   SUNNY     17  -1  45 NW14      30.22S WCI   3
$$

  *****  SOME NATIONAL WEATHER *****

CITY           SKY/WX    TMP DP  RH WIND       PRES   REMARKS
LA GUARDIA NY  CLOUDY    45  38  76 SW8       29.88R
RALEIGH NC     PTSUNNY   74  58  57 SW21G26   29.87F
ATLANTA GA     PTSUNNY   77  56  48 SW18G25   29.93F
NEW ORLEANS LA PTSUNNY   80  67  64 S17G25    29.91F
OKLAHOMA CITY  LGT SNOW  27  18  69 N21G32    30.16F WCI  13
ALBUQUERQUE NM PTSUNNY   49  19  30 NW20      29.95F
SALT LAKE CITY MOSUNNY   37  19  48 CALM      30.22F
LOS ANGELES CA MOSUNNY   66  41  40 W8        30.08F
BOISE ID       SUNNY     42  10  27 NW6       30.28F
SEATTLE WA     MOSUNNY   50  25  37 W6        30.29F
$$

*** WEATHER ACROSS MANITOBA...SASKATCHEWAN AND ONTARIO ***
                ***ONTARIO***

CITY           SKY/WX    TMP DP  RH WIND       PRES   REMARKS
GERALDTON      PTSUNNY    1 -11  55 W12G17    29.93R WCI -15
THUNDER BAY    PTSUNNY    5 -11  47 NW14G23   30.08R WCI -12
SIOUX LOOKOUT  SUNNY      0 -15  50 W10       30.07R WCI -17
TORONTO        CLOUDY    30  18  59 W16       29.89R WCI  19
BIG TROUT LK   PTSUNNY   -2 -11  65 W16G23    30.00R WCI -23
PICKLE LAKE    SUNNY      1 -17  42 NW9       29.99R WCI -14
DRYDEN         SUNNY      1 -15  46 W12G20    30.08R WCI -15
KENORA         MOSUNNY    1 -15  46 N13       30.14R WCI -16
$$
                *** MANITOBA***

CITY           SKY/WX    TMP DP  RH WIND       PRES   REMARKS
BRANDON        SUNNY     -4 -13  65 NW17      30.30F WCI -26
DAUPHIN        SUNNY      0 -11  60 W18       30.27F WCI -22
ISLAND LAKE    MOSUNNY    0 -11  60 W13       30.10S WCI -18
PILOT MOUND      N/A     -4 -13  65 NW16        N/A  WCI -25
THE PAS        SUNNY      0 -17  46 W13       30.21F WCI -18
THOMPSON       SUNNY     -2 -17  50 W16       30.08F WCI -23
WINNIPEG       MOSUNNY   -2 -13  60 NW17      30.33R WCI -24
LYNN LAKE      SUNNY     -6 -18  54 W16       30.05F WCI -28
CHURCHILL      CRYSTALS -15 -24  64 NW17      30.00S WCI -40
GILLAM         MOSUNNY   -8 -20  54 W15G22    30.04S WCI -29
$$
                ***SASKATCHEWAN***

CITY           SKY/WX    TMP DP  RH WIND       PRES   REMARKS
ESTEVAN        NOT AVBL
KINDERSLEY     PTSUNNY    5  -6  61 S14       30.12F WCI -12
LLOYDMINSTER   PTSUNNY    5  -8  56 S13       30.06F WCI -12
PRINCE ALBERT  PTSUNNY    1 -15  46 S9        30.22F WCI -14
REGINA         SUNNY     -8 -17  65 W8        30.29F WCI -23
YORKTON        SUNNY     -4 -17  54 W13       30.26F WCI -23
N. BATTLEFORD  SUNNY      1 -11  55 SW12      30.20F WCI -15
LA RONGE       PTSUNNY    3 -13  47 S6        30.14F WCI  -8
SASKATOON      MOSUNNY   -2 -13  60 SW12      30.25F WCI -20
SWIFT CURRENT  SUNNY      5  -8  56 S9        30.12F WCI  -9
$$
NOTE: THESE ARE AUTOMATED STATIONS WITH LIMITED QUALITY CONTROL
      "FAIR" INDICATES FEW OR NO CLOUDS BELOW 12,000 FEET WITH NO
      SIGNIFICANT WEATHER AND/OR OBSTRUCTIONS TO VISIBILITY.
      SKY/WX - SKY CONDITION AND SIGNIFICANT WEATHER.
      TMP - AIR TEMPERATURE.    DP   - DEWPOINT TEMPERATURE.
      RH  - RELATIVE HUMIDITY.  PRES - PRESSURE.
      HX  - HEAT INDEX.         WCI  - WIND CHILL INDEX.
$


USA.gov is the U.S. government's official web portal to all federal, state and local government web resources and services.